Back to Top

Language: 

My Weather Underground Personal Weather Station Historical Data with Graphs...

Delerius Weather Station Historical Data
Daily Summary for September 27, 2017 Units:  Metric    English   Both
« Previous Day
Next Day »
Daily Weekly Monthly Yearly Custom
  High: Low: Average:
Temperature: 17.7 °C 13.2 °C 14.7 °C
Dew Point: 14.5 °C 12.1 °C 13 °C
Humidity: 97 % 75 % 90 %
Wind Speed: 19.3 km/h 1.6 km/h 10.9 km/h
Wind Gust: 35.4 km/h - -
Wind:- - SE
Pressure: 1022.6 hPa 1014.8 hPa -
Precipitation: 8.13 mm    
Historical Graphs
 
 
Tabular Data for September 27, 2017
Time Temperature Dew Point Pressure Wind Wind Speed Wind Gust Humidity Rainfall Rate (Hourly) solar Conditions
00:04 13.3 °C 12.5 °C 1022.6 hPa ESE 4.8 km/h 9.7 km/h 95 % 0 mm 0 W/m2
00:10 13.3 °C 12.5 °C 1022.6 hPa East 3.2 km/h 9.7 km/h 95 % 0 mm 0 W/m2
00:15 13.3 °C 12.5 °C 1022.6 hPa ESE 4.8 km/h 9.7 km/h 95 % 0 mm 0 W/m2
00:20 13.3 °C 12.5 °C 1022.6 hPa ESE 4.8 km/h 9.7 km/h 95 % 0 mm 0 W/m2
00:25 13.4 °C 12.6 °C 1022.6 hPa ESE 3.2 km/h 9.7 km/h 95 % 0 mm 0 W/m2
00:30 13.4 °C 12.6 °C 1022.6 hPa ESE 3.2 km/h 9.7 km/h 95 % 0 mm 0 W/m2
00:35 13.4 °C 12.6 °C 1022.2 hPa ESE 3.2 km/h 9.7 km/h 95 % 0 mm 0 W/m2
00:40 13.4 °C 12.6 °C 1022.6 hPa ESE 1.6 km/h 6.4 km/h 95 % 0 mm 0 W/m2
00:45 13.4 °C 12.6 °C 1022.2 hPa ESE 1.6 km/h 9.7 km/h 95 % 0 mm 0 W/m2
00:50 13.4 °C 12.6 °C 1022.2 hPa ESE 1.6 km/h 9.7 km/h 95 % 0 mm 0 W/m2
00:55 13.4 °C 12.8 °C 1022.2 hPa ESE 3.2 km/h 8 km/h 96 % 0 mm 0 W/m2
01:00 13.5 °C 12.9 °C 1022.2 hPa ESE 3.2 km/h 8 km/h 96 % 0 mm 0 W/m2
01:05 13.5 °C 12.9 °C 1022.2 hPa East 4.8 km/h 9.7 km/h 96 % 0 mm 0 W/m2
01:10 13.5 °C 12.9 °C 1022.2 hPa East 4.8 km/h 9.7 km/h 96 % 0 mm 0 W/m2
01:15 13.5 °C 12.9 °C 1022.2 hPa East 3.2 km/h 9.7 km/h 96 % 0 mm 0 W/m2
01:20 13.6 °C 13 °C 1022.2 hPa ESE 4.8 km/h 11.3 km/h 96 % 0 mm 0 W/m2
01:25 13.6 °C 13 °C 1022.2 hPa ESE 4.8 km/h 11.3 km/h 96 % 0 mm 0 W/m2
01:30 13.6 °C 13 °C 1022.2 hPa ESE 3.2 km/h 8 km/h 96 % 0 mm 0 W/m2
01:35 13.6 °C 13 °C 1022.2 hPa ESE 3.2 km/h 9.7 km/h 96 % 0 mm 0 W/m2
01:40 13.6 °C 13 °C 1022.2 hPa East 3.2 km/h 9.7 km/h 96 % 0 mm 0 W/m2
01:45 13.6 °C 13 °C 1021.9 hPa East 3.2 km/h 8 km/h 96 % 0 mm 0 W/m2
01:50 13.6 °C 13 °C 1021.9 hPa East 3.2 km/h 8 km/h 96 % 0 mm 0 W/m2
01:55 13.6 °C 13 °C 1021.9 hPa East 3.2 km/h 8 km/h 96 % 0 mm 0 W/m2
02:00 13.6 °C 13 °C 1021.9 hPa East 4.8 km/h 9.7 km/h 96 % 0 mm 0 W/m2
02:05 13.6 °C 13 °C 1021.9 hPa East 3.2 km/h 9.7 km/h 96 % 0 mm 0 W/m2
02:07 13.6 °C 13 °C 1021.9 hPa East 3.2 km/h 9.7 km/h 96 % 0 mm 0 W/m2
02:12 13.6 °C 13 °C 1021.9 hPa East 4.8 km/h 12.9 km/h 96 % 0 mm 0 W/m2
02:17 13.6 °C 13 °C 1021.9 hPa ESE 6.4 km/h 12.9 km/h 96 % 0 mm 0 W/m2
02:22 13.6 °C 13 °C 1021.6 hPa ESE 6.4 km/h 9.7 km/h 96 % 0 mm 0 W/m2
02:27 13.6 °C 13 °C 1021.6 hPa East 6.4 km/h 12.9 km/h 96 % 0 mm 0 W/m2
02:32 13.6 °C 13 °C 1021.6 hPa East 6.4 km/h 12.9 km/h 96 % 0 mm 0 W/m2
02:37 13.6 °C 13.1 °C 1021.6 hPa East 4.8 km/h 11.3 km/h 97 % 0 mm 0 W/m2
02:43 13.6 °C 13.1 °C 1021.6 hPa East 4.8 km/h 11.3 km/h 97 % 0 mm 0 W/m2
02:48 13.6 °C 13.1 °C 1021.6 hPa East 3.2 km/h 11.3 km/h 97 % 0 mm 0 W/m2
02:53 13.6 °C 13.1 °C 1021.6 hPa East 3.2 km/h 11.3 km/h 97 % 0 mm 0 W/m2
02:58 13.6 °C 13.1 °C 1021.6 hPa East 4.8 km/h 11.3 km/h 97 % 0 mm 0 W/m2
03:03 13.6 °C 13.1 °C 1021.6 hPa East 4.8 km/h 12.9 km/h 97 % 0 mm 0 W/m2
03:08 13.6 °C 13.1 °C 1021.6 hPa East 6.4 km/h 12.9 km/h 97 % 0 mm 0 W/m2
03:13 13.6 °C 13.1 °C 1021.6 hPa East 6.4 km/h 12.9 km/h 97 % 0 mm 0 W/m2
03:18 13.6 °C 13.1 °C 1021.6 hPa ESE 8 km/h 14.5 km/h 97 % 0 mm 0 W/m2
03:23 13.6 °C 13.1 °C 1021.2 hPa ESE 8 km/h 14.5 km/h 97 % 0 mm 0 W/m2
03:28 13.6 °C 13.1 °C 1021.2 hPa ESE 8 km/h 12.9 km/h 97 % 0 mm 0 W/m2
03:33 13.6 °C 13.1 °C 1021.2 hPa ESE 8 km/h 12.9 km/h 97 % 0 mm 0 W/m2
03:38 13.6 °C 13.1 °C 1021.2 hPa ESE 8 km/h 16.1 km/h 97 % 0 mm 0 W/m2
03:43 13.6 °C 13.1 °C 1021.2 hPa ESE 9.7 km/h 16.1 km/h 97 % 0 mm 0 W/m2
03:48 13.6 °C 13.1 °C 1021.2 hPa SE 9.7 km/h 16.1 km/h 97 % 0 mm 0 W/m2
03:53 13.7 °C 13.2 °C 1021.2 hPa SE 8 km/h 12.9 km/h 97 % 0 mm 0 W/m2
03:58 13.7 °C 13.2 °C 1021.2 hPa ESE 6.4 km/h 11.3 km/h 97 % 0 mm 0 W/m2
04:03 13.6 °C 13.1 °C 1021.2 hPa ESE 8 km/h 14.5 km/h 97 % 0 mm 0 W/m2
04:08 13.6 °C 13.1 °C 1021.2 hPa ESE 8 km/h 14.5 km/h 97 % 0 mm 0 W/m2
04:13 13.6 °C 13.1 °C 1021.2 hPa ESE 9.7 km/h 19.3 km/h 97 % 0 mm 0 W/m2
04:18 13.5 °C 13.1 °C 1021.2 hPa ESE 9.7 km/h 19.3 km/h 97 % 0 mm 0 W/m2
04:23 13.5 °C 13.1 °C 1021.2 hPa ESE 9.7 km/h 16.1 km/h 97 % 0 mm 0 W/m2
04:27 13.4 °C 12.9 °C 1021.2 hPa ESE 9.7 km/h 16.1 km/h 97 % 0 mm 0 W/m2
04:32 13.4 °C 12.9 °C 1021.2 hPa ESE 8 km/h 16.1 km/h 97 % 0 mm 0 W/m2
04:37 13.4 °C 12.9 °C 1021.2 hPa ESE 8 km/h 16.1 km/h 97 % 0 mm 0 W/m2
04:38 13.4 °C 12.9 °C 1021.2 hPa ESE 8 km/h 16.1 km/h 97 % 0 mm 0 W/m2
04:43 13.4 °C 12.9 °C 1021.2 hPa ESE 6.4 km/h 16.1 km/h 97 % 0 mm 0 W/m2
04:48 13.3 °C 12.8 °C 1021.2 hPa ESE 6.4 km/h 12.9 km/h 97 % 0 mm 0 W/m2
04:53 13.3 °C 12.8 °C 1021.2 hPa ESE 8 km/h 12.9 km/h 97 % 0 mm 0 W/m2
04:58 13.3 °C 12.8 °C 1021.2 hPa ESE 8 km/h 12.9 km/h 97 % 0 mm 0 W/m2
05:03 13.3 °C 12.8 °C 1020.9 hPa ESE 8 km/h 12.9 km/h 97 % 0 mm 0 W/m2
05:08 13.3 °C 12.8 °C 1020.9 hPa ESE 8 km/h 12.9 km/h 97 % 0 mm 0 W/m2
05:13 13.3 °C 12.8 °C 1020.9 hPa ESE 8 km/h 16.1 km/h 97 % 0 mm 0 W/m2
05:18 13.3 °C 12.8 °C 1020.9 hPa ESE 9.7 km/h 16.1 km/h 97 % 0 mm 0 W/m2
05:23 13.3 °C 12.8 °C 1020.9 hPa ESE 8 km/h 12.9 km/h 97 % 0 mm 0 W/m2
05:28 13.3 °C 12.8 °C 1020.9 hPa ESE 6.4 km/h 11.3 km/h 97 % 0 mm 0 W/m2
05:33 13.2 °C 12.7 °C 1020.9 hPa ESE 8 km/h 17.7 km/h 97 % 0 mm 0 W/m2
05:38 13.2 °C 12.7 °C 1020.9 hPa ESE 9.7 km/h 17.7 km/h 97 % 0 mm 0 W/m2
05:43 13.2 °C 12.7 °C 1020.9 hPa ESE 8 km/h 14.5 km/h 97 % 0 mm 0 W/m2
05:48 13.2 °C 12.7 °C 1020.9 hPa SE 8 km/h 25.7 km/h 97 % 0 mm 0 W/m2
05:53 13.2 °C 12.7 °C 1020.9 hPa SE 11.3 km/h 25.7 km/h 97 % 0 mm 0 W/m2
05:58 13.2 °C 12.7 °C 1020.5 hPa SE 11.3 km/h 19.3 km/h 97 % 0 mm 0 W/m2
06:03 13.2 °C 12.6 °C 1020.5 hPa SE 11.3 km/h 19.3 km/h 96 % 0 mm 0 W/m2
06:08 13.2 °C 12.6 °C 1020.5 hPa SE 9.7 km/h 16.1 km/h 96 % 0 mm 0 W/m2
06:13 13.2 °C 12.6 °C 1020.5 hPa SE 11.3 km/h 20.9 km/h 96 % 0 mm 0 W/m2
06:18 13.2 °C 12.6 °C 1020.5 hPa SE 11.3 km/h 20.9 km/h 96 % 0 mm 0 W/m2
06:23 13.2 °C 12.6 °C 1020.5 hPa SE 9.7 km/h 17.7 km/h 96 % 0 mm 0 W/m2
06:28 13.3 °C 12.7 °C 1020.5 hPa SE 9.7 km/h 17.7 km/h 96 % 0 mm 0 W/m2
06:33 13.3 °C 12.5 °C 1020.9 hPa SE 9.7 km/h 19.3 km/h 95 % 0 mm 0 W/m2
06:38 13.3 °C 12.5 °C 1020.9 hPa SE 11.3 km/h 19.3 km/h 95 % 0 mm 0 W/m2
06:43 13.3 °C 12.5 °C 1020.9 hPa ESE 11.3 km/h 19.3 km/h 95 % 0 mm 0 W/m2
06:48 13.3 °C 12.5 °C 1020.9 hPa ESE 11.3 km/h 20.9 km/h 95 % 0 mm 0 W/m2
06:53 13.3 °C 12.5 °C 1020.5 hPa ESE 11.3 km/h 20.9 km/h 95 % 0 mm 0 W/m2
06:58 13.3 °C 12.5 °C 1020.5 hPa ESE 9.7 km/h 14.5 km/h 95 % 0 mm 0 W/m2
07:04 13.2 °C 12.4 °C 1020.5 hPa ESE 9.7 km/h 14.5 km/h 95 % 0 mm 5 W/m2
07:09 13.2 °C 12.4 °C 1020.5 hPa ESE 8 km/h 16.1 km/h 95 % 0 mm 5 W/m2
07:14 13.2 °C 12.4 °C 1020.5 hPa ESE 9.7 km/h 16.1 km/h 95 % 0 mm 7 W/m2
07:19 13.2 °C 12.4 °C 1020.5 hPa ESE 9.7 km/h 16.1 km/h 95 % 0 mm 12 W/m2
07:24 13.2 °C 12.3 °C 1020.5 hPa ESE 9.7 km/h 16.1 km/h 94 % 0 mm 18 W/m2
07:29 13.2 °C 12.3 °C 1020.5 hPa ESE 9.7 km/h 16.1 km/h 94 % 0 mm 18 W/m2
07:34 13.2 °C 12.3 °C 1020.9 hPa ESE 9.7 km/h 14.5 km/h 94 % 0 mm 18 W/m2
07:39 13.2 °C 12.3 °C 1020.9 hPa ESE 9.7 km/h 16.1 km/h 94 % 0 mm 12 W/m2
07:44 13.2 °C 12.3 °C 1020.9 hPa ESE 9.7 km/h 17.7 km/h 94 % 0 mm 19 W/m2
07:49 13.2 °C 12.3 °C 1020.9 hPa ESE 11.3 km/h 19.3 km/h 94 % 0 mm 18 W/m2
07:54 13.2 °C 12.3 °C 1020.9 hPa ESE 9.7 km/h 19.3 km/h 94 % 0 mm 23 W/m2
07:59 13.2 °C 12.3 °C 1020.9 hPa ESE 9.7 km/h 16.1 km/h 94 % 0 mm 39 W/m2
08:04 13.2 °C 12.3 °C 1020.9 hPa ESE 9.7 km/h 17.7 km/h 94 % 0 mm 46 W/m2
08:09 13.2 °C 12.3 °C 1020.9 hPa SE 11.3 km/h 17.7 km/h 94 % 0 mm 51 W/m2
08:14 13.2 °C 12.3 °C 1020.5 hPa SE 11.3 km/h 17.7 km/h 94 % 0 mm 49 W/m2
08:19 13.3 °C 12.2 °C 1020.5 hPa SE 9.7 km/h 17.7 km/h 93 % 0 mm 37 W/m2
08:24 13.3 °C 12.2 °C 1020.5 hPa SE 9.7 km/h 16.1 km/h 93 % 0 mm 47 W/m2
08:29 13.3 °C 12.2 °C 1020.5 hPa SE 8 km/h 16.1 km/h 93 % 0 mm 62 W/m2
08:34 13.3 °C 12.2 °C 1020.9 hPa SE 8 km/h 17.7 km/h 93 % 0 mm 39 W/m2
08:39 13.4 °C 12.3 °C 1020.9 hPa SE 9.7 km/h 19.3 km/h 93 % 0 mm 28 W/m2
08:44 13.4 °C 12.3 °C 1020.9 hPa SE 11.3 km/h 20.9 km/h 93 % 0 mm 26 W/m2
08:49 13.4 °C 12.3 °C 1020.5 hPa SE 11.3 km/h 20.9 km/h 93 % 0 mm 30 W/m2
08:54 13.4 °C 12.3 °C 1020.5 hPa SE 11.3 km/h 16.1 km/h 93 % 0 mm 23 W/m2
08:59 13.4 °C 12.3 °C 1020.5 hPa SE 9.7 km/h 16.1 km/h 93 % 0 mm 21 W/m2
09:04 13.4 °C 12.1 °C 1020.5 hPa SE 9.7 km/h 19.3 km/h 92 % 0 mm 26 W/m2
09:09 13.4 °C 12.1 °C 1020.5 hPa SE 11.3 km/h 19.3 km/h 92 % 0 mm 39 W/m2
09:14 13.4 °C 12.1 °C 1020.5 hPa SE 11.3 km/h 22.5 km/h 92 % 0 mm 53 W/m2
09:20 13.5 °C 12.2 °C 1020.5 hPa SE 11.3 km/h 22.5 km/h 92 % 0 mm 58 W/m2
09:25 13.6 °C 12.3 °C 1020.5 hPa SE 8 km/h 16.1 km/h 92 % 0 mm 76 W/m2
09:30 13.6 °C 12.3 °C 1020.5 hPa SE 8 km/h 16.1 km/h 92 % 0 mm 60 W/m2
09:35 13.6 °C 12.3 °C 1020.5 hPa SE 8 km/h 14.5 km/h 92 % 0 mm 62 W/m2
09:40 13.7 °C 12.4 °C 1020.5 hPa SE 9.7 km/h 16.1 km/h 92 % 0 mm 69 W/m2
09:44 13.7 °C 12.4 °C 1020.5 hPa SE 11.3 km/h 19.3 km/h 92 % 0 mm 53 W/m2
09:50 13.7 °C 12.4 °C 1020.5 hPa SE 9.7 km/h 19.3 km/h 92 % 0 mm 65 W/m2
09:55 13.7 °C 12.3 °C 1020.2 hPa SE 9.7 km/h 17.7 km/h 91 % 0 mm 93 W/m2
10:00 13.8 °C 12.3 °C 1020.2 hPa SE 12.9 km/h 19.3 km/h 91 % 0 mm 84 W/m2
10:05 13.8 °C 12.3 °C 1020.2 hPa SE 12.9 km/h 19.3 km/h 91 % 0 mm 93 W/m2
10:10 13.9 °C 12.4 °C 1020.2 hPa SE 12.9 km/h 19.3 km/h 91 % 0 mm 114 W/m2
10:15 13.9 °C 12.3 °C 1020.2 hPa SE 14.5 km/h 25.7 km/h 90 % 0 mm 107 W/m2
10:20 13.9 °C 12.3 °C 1020.2 hPa SE 16.1 km/h 25.7 km/h 90 % 0 mm 60 W/m2
10:25 13.9 °C 12.3 °C 1020.2 hPa SE 14.5 km/h 25.7 km/h 90 % 0 mm 53 W/m2
10:30 13.9 °C 12.3 °C 1020.2 hPa SE 12.9 km/h 25.7 km/h 90 % 0 mm 39 W/m2
10:35 13.9 °C 12.1 °C 1019.9 hPa SE 12.9 km/h 20.9 km/h 89 % 0 mm 35 W/m2
10:40 13.9 °C 12.3 °C 1019.9 hPa SE 12.9 km/h 20.9 km/h 90 % 0 mm 42 W/m2
10:45 13.9 °C 12.3 °C 1019.9 hPa SE 11.3 km/h 20.9 km/h 90 % 0 mm 113 W/m2
10:50 14 °C 12.4 °C 1019.9 hPa SE 9.7 km/h 22.5 km/h 90 % 0 mm 153 W/m2
10:55 14 °C 12.2 °C 1019.9 hPa SE 12.9 km/h 22.5 km/h 89 % 0 mm 107 W/m2
11:00 14.1 °C 12.3 °C 1019.9 hPa SE 12.9 km/h 22.5 km/h 89 % 0 mm 105 W/m2
11:05 14.1 °C 12.3 °C 1019.9 hPa SE 11.3 km/h 19.3 km/h 89 % 0 mm 118 W/m2
11:10 14.2 °C 12.4 °C 1019.5 hPa SE 11.3 km/h 19.3 km/h 89 % 0 mm 123 W/m2
11:15 14.2 °C 12.2 °C 1019.5 hPa SE 12.9 km/h 24.1 km/h 88 % 0 mm 144 W/m2
11:20 14.3 °C 12.3 °C 1019.5 hPa SE 11.3 km/h 24.1 km/h 88 % 0 mm 132 W/m2
11:25 14.4 °C 12.3 °C 1019.5 hPa SE 11.3 km/h 25.7 km/h 87 % 0 mm 142 W/m2
11:30 14.5 °C 12.3 °C 1019.5 hPa SE 12.9 km/h 25.7 km/h 87 % 0 mm 172 W/m2
11:35 14.6 °C 12.4 °C 1019.5 hPa SE 11.3 km/h 22.5 km/h 87 % 0 mm 162 W/m2
11:40 14.7 °C 12.4 °C 1019.5 hPa SE 12.9 km/h 29 km/h 86 % 0 mm 125 W/m2
11:45 14.7 °C 12.2 °C 1019.5 hPa SE 14.5 km/h 29 km/h 85 % 0 mm 123 W/m2
11:50 14.7 °C 12.2 °C 1019.2 hPa SE 14.5 km/h 22.5 km/h 85 % 0 mm 162 W/m2
11:55 14.8 °C 12.3 °C 1019.2 hPa SE 14.5 km/h 22.5 km/h 85 % 0 mm 171 W/m2
12:00 14.8 °C 12.3 °C 1019.2 hPa SE 14.5 km/h 24.1 km/h 85 % 0 mm 169 W/m2
12:05 14.9 °C 12.4 °C 1019.2 hPa SE 14.5 km/h 24.1 km/h 85 % 0 mm 274 W/m2
12:10 15 °C 12.5 °C 1019.2 hPa SE 14.5 km/h 24.1 km/h 85 % 0 mm 292 W/m2
12:15 15.2 °C 12.5 °C 1018.8 hPa SE 14.5 km/h 22.5 km/h 84 % 0 mm 262 W/m2
12:20 15.2 °C 12.5 °C 1018.8 hPa SE 14.5 km/h 24.1 km/h 84 % 0 mm 251 W/m2
12:25 15.3 °C 12.6 °C 1018.8 hPa SE 14.5 km/h 24.1 km/h 84 % 0 mm 267 W/m2
12:30 15.4 °C 12.7 °C 1018.5 hPa SE 14.5 km/h 24.1 km/h 84 % 0 mm 719 W/m2
12:35 15.7 °C 13 °C 1018.5 hPa SE 12.9 km/h 24.1 km/h 84 % 0 mm 585 W/m2
12:40 15.9 °C 12.8 °C 1018.5 hPa SE 14.5 km/h 29 km/h 82 % 0 mm 281 W/m2
12:45 15.9 °C 12.7 °C 1018.5 hPa SE 16.1 km/h 29 km/h 81 % 0 mm 281 W/m2
12:50 16 °C 12.7 °C 1018.5 hPa SE 14.5 km/h 24.1 km/h 81 % 0 mm 345 W/m2
12:55 16 °C 12.7 °C 1018.5 hPa SE 14.5 km/h 29 km/h 81 % 0 mm 241 W/m2
13:00 16 °C 12.6 °C 1018.2 hPa SE 17.7 km/h 33.8 km/h 80 % 0 mm 330 W/m2
13:06 16 °C 12.7 °C 1018.2 hPa SE 17.7 km/h 35.4 km/h 81 % 0 mm 229 W/m2
13:11 16 °C 12.6 °C 1018.2 hPa SE 17.7 km/h 35.4 km/h 80 % 0 mm 258 W/m2
13:16 16.1 °C 12.7 °C 1018.2 hPa SE 17.7 km/h 29 km/h 80 % 0 mm 257 W/m2
13:21 16.1 °C 12.7 °C 1018.2 hPa SE 16.1 km/h 32.2 km/h 80 % 0 mm 232 W/m2
13:26 16.1 °C 12.7 °C 1018.2 hPa SE 17.7 km/h 32.2 km/h 80 % 0 mm 225 W/m2
13:31 16.2 °C 12.9 °C 1017.8 hPa SE 16.1 km/h 29 km/h 81 % 0 mm 814 W/m2
13:36 16.5 °C 13.1 °C 1017.8 hPa SE 12.9 km/h 24.1 km/h 80 % 0 mm 494 W/m2
13:41 16.7 °C 13.1 °C 1017.8 hPa SE 12.9 km/h 29 km/h 79 % 0 mm 359 W/m2
13:46 16.7 °C 13.1 °C 1017.8 hPa ESE 14.5 km/h 29 km/h 79 % 0 mm 380 W/m2
13:51 16.9 °C 13.1 °C 1017.5 hPa ESE 16.1 km/h 29 km/h 78 % 0 mm 439 W/m2
13:56 17 °C 13.1 °C 1017.5 hPa SE 14.5 km/h 29 km/h 78 % 0 mm 316 W/m2
14:01 17 °C 12.9 °C 1017.5 hPa SE 17.7 km/h 32.2 km/h 77 % 0 mm 292 W/m2
14:06 17.1 °C 13.1 °C 1017.2 hPa SE 17.7 km/h 32.2 km/h 77 % 0 mm 383 W/m2
14:11 17.1 °C 12.8 °C 1017.2 hPa SE 16.1 km/h 35.4 km/h 76 % 0 mm 264 W/m2
14:16 17.2 °C 12.9 °C 1017.2 hPa SE 16.1 km/h 35.4 km/h 76 % 0 mm 638 W/m2
14:21 17.4 °C 13.1 °C 1017.2 hPa SE 16.1 km/h 24.1 km/h 76 % 0 mm 359 W/m2
14:26 17.5 °C 13 °C 1016.8 hPa SE 16.1 km/h 33.8 km/h 75 % 0 mm 320 W/m2
14:31 17.4 °C 12.9 °C 1016.8 hPa SE 17.7 km/h 33.8 km/h 75 % 0 mm 193 W/m2
14:36 17.3 °C 13 °C 1016.8 hPa SE 17.7 km/h 33.8 km/h 76 % 0 mm 241 W/m2
14:41 17.3 °C 13.2 °C 1016.8 hPa SE 16.1 km/h 32.2 km/h 77 % 0 mm 265 W/m2
14:46 17.4 °C 13.3 °C 1016.5 hPa SE 14.5 km/h 29 km/h 77 % 0 mm 448 W/m2
14:51 17.4 °C 13.3 °C 1016.5 hPa SE 14.5 km/h 29 km/h 77 % 0 mm 165 W/m2
14:56 17.4 °C 13.1 °C 1016.5 hPa SE 14.5 km/h 24.1 km/h 76 % 0 mm 130 W/m2
15:01 17.4 °C 13.1 °C 1016.5 hPa SE 14.5 km/h 24.1 km/h 76 % 0 mm 181 W/m2
15:06 17.4 °C 13.3 °C 1016.5 hPa SE 16.1 km/h 29 km/h 77 % 0 mm 151 W/m2
15:11 17.4 °C 13.3 °C 1016.5 hPa SE 16.1 km/h 29 km/h 77 % 0 mm 142 W/m2
15:16 17.4 °C 13.3 °C 1016.5 hPa SE 16.1 km/h 30.6 km/h 77 % 0 mm 91 W/m2
15:21 17.3 °C 13.2 °C 1016.5 hPa SE 17.7 km/h 32.2 km/h 77 % 0 mm 83 W/m2
15:26 17.3 °C 13.2 °C 1016.1 hPa SE 17.7 km/h 33.8 km/h 77 % 0 mm 181 W/m2
15:31 17.3 °C 13.2 °C 1016.1 hPa SE 19.3 km/h 35.4 km/h 77 % 0 mm 202 W/m2
15:36 17.4 °C 13.5 °C 1016.1 hPa SE 19.3 km/h 35.4 km/h 78 % 0 mm 290 W/m2
15:41 17.5 °C 13.6 °C 1015.8 hPa SE 16.1 km/h 35.4 km/h 78 % 0 mm 360 W/m2
15:46 17.7 °C 13.6 °C 1015.8 hPa SE 16.1 km/h 25.7 km/h 77 % 0 mm 178 W/m2
15:51 17.7 °C 13.6 °C 1015.8 hPa SE 17.7 km/h 30.6 km/h 77 % 0 mm 162 W/m2
15:54 17.6 °C 13.5 °C 1015.8 hPa SE 16.1 km/h 30.6 km/h 77 % 0 mm 160 W/m2
15:59 17.6 °C 13.5 °C 1015.8 hPa SE 14.5 km/h 29 km/h 77 % 0 mm 149 W/m2
16:04 17.6 °C 13.5 °C 1015.8 hPa SE 14.5 km/h 29 km/h 77 % 0 mm 127 W/m2
16:09 17.6 °C 13.5 °C 1015.8 hPa SE 16.1 km/h 30.6 km/h 77 % 0 mm 123 W/m2
16:14 17.5 °C 13.4 °C 1015.8 hPa SE 16.1 km/h 30.6 km/h 77 % 0 mm 123 W/m2
16:19 17.5 °C 13.4 °C 1015.8 hPa SE 14.5 km/h 24.1 km/h 77 % 0 mm 93 W/m2
16:24 17.5 °C 13.6 °C 1015.5 hPa SE 12.9 km/h 20.9 km/h 78 % 0 mm 93 W/m2
16:29 17.5 °C 13.6 °C 1015.5 hPa SE 12.9 km/h 19.3 km/h 78 % 0 mm 100 W/m2
16:34 17.4 °C 13.5 °C 1015.5 hPa SE 14.5 km/h 22.5 km/h 78 % 0 mm 90 W/m2
16:39 17.4 °C 13.5 °C 1015.5 hPa SE 14.5 km/h 25.7 km/h 78 % 0 mm 93 W/m2
16:49 17.5 °C 13.6 °C 1015.1 hPa SE 16.1 km/h 30.6 km/h 78 % 0 mm 84 W/m2
16:54 17.5 °C 13.6 °C 1015.1 hPa SE 16.1 km/h 24.1 km/h 78 % 0 mm 91 W/m2
16:59 17.5 °C 13.8 °C 1015.1 hPa SE 16.1 km/h 25.7 km/h 79 % 0 mm 84 W/m2
17:04 17.5 °C 13.6 °C 1015.1 hPa SE 14.5 km/h 25.7 km/h 78 % 0 mm 70 W/m2
17:09 17.4 °C 13.7 °C 1015.1 hPa SE 14.5 km/h 24.1 km/h 79 % 0 mm 58 W/m2
17:14 17.4 °C 13.7 °C 1015.1 hPa SE 12.9 km/h 20.9 km/h 79 % 0 mm 47 W/m2
17:19 17.4 °C 13.7 °C 1015.1 hPa SE 12.9 km/h 20.9 km/h 79 % 0 mm 35 W/m2
17:24 17.4 °C 13.7 °C 1015.1 hPa SE 11.3 km/h 20.9 km/h 79 % 0 mm 46 W/m2
17:29 17.3 °C 13.8 °C 1015.1 hPa ESE 11.3 km/h 19.3 km/h 80 % 0 mm 37 W/m2
17:34 17.3 °C 13.8 °C 1015.1 hPa ESE 11.3 km/h 17.7 km/h 80 % 0 mm 42 W/m2
17:39 17.2 °C 13.7 °C 1015.1 hPa SE 12.9 km/h 20.9 km/h 80 % 0 mm 39 W/m2
17:44 17.2 °C 13.7 °C 1015.1 hPa SE 12.9 km/h 22.5 km/h 80 % 0 mm 28 W/m2
17:49 17.2 °C 13.9 °C 1015.1 hPa ESE 12.9 km/h 22.5 km/h 81 % 0 mm 21 W/m2
17:54 17.2 °C 13.9 °C 1015.1 hPa ESE 11.3 km/h 20.9 km/h 81 % 0 mm 30 W/m2
17:59 17.2 °C 13.9 °C 1015.1 hPa ESE 12.9 km/h 22.5 km/h 81 % 0 mm 23 W/m2
18:04 17.2 °C 13.9 °C 1014.8 hPa ESE 12.9 km/h 22.5 km/h 81 % 0 mm 21 W/m2
18:09 17.2 °C 13.9 °C 1014.8 hPa ESE 11.3 km/h 22.5 km/h 81 % 0 mm 14 W/m2
18:14 17.2 °C 13.9 °C 1014.8 hPa ESE 12.9 km/h 24.1 km/h 81 % 0 mm 12 W/m2
18:19 17.2 °C 14.1 °C 1014.8 hPa ESE 11.3 km/h 24.1 km/h 82 % 0 mm 5 W/m2
18:24 17.1 °C 14 °C 1014.8 hPa SE 9.7 km/h 17.7 km/h 82 % 0 mm 7 W/m2
18:29 17.1 °C 14 °C 1014.8 hPa SE 9.7 km/h 19.3 km/h 82 % 0 mm 0 W/m2
18:34 17.1 °C 14.2 °C 1014.8 hPa SE 11.3 km/h 19.3 km/h 83 % 0 mm 0 W/m2
18:39 16.9 °C 14.2 °C 1014.8 hPa SE 11.3 km/h 22.5 km/h 84 % 0 mm 0 W/m2
18:44 16.8 °C 14.3 °C 1014.8 hPa SE 12.9 km/h 22.5 km/h 85 % 0 mm 0 W/m2
18:49 16.7 °C 14.3 °C 1015.1 hPa SE 12.9 km/h 22.5 km/h 86 % 0.25 mm 0 W/m2
18:54 16.5 °C 14.3 °C 1015.1 hPa SE 11.3 km/h 20.9 km/h 87 % 0.25 mm 0 W/m2
18:59 16.4 °C 14.4 °C 1015.1 hPa SE 9.7 km/h 19.3 km/h 88 % 0.51 mm 0 W/m2
19:04 16.3 °C 14.5 °C 1015.1 hPa South 9.7 km/h 16.1 km/h 89 % 0.51 mm 0 W/m2
19:09 16.1 °C 14.3 °C 1015.1 hPa SSW 11.3 km/h 24.1 km/h 89 % 1.02 mm 0 W/m2
19:14 16 °C 14.3 °C 1015.1 hPa SSE 14.5 km/h 24.1 km/h 90 % 1.27 mm 0 W/m2
19:19 15.9 °C 14.3 °C 1015.1 hPa SE 14.5 km/h 22.5 km/h 90 % 1.27 mm 0 W/m2
19:24 15.9 °C 14.4 °C 1015.1 hPa SE 11.3 km/h 17.7 km/h 91 % 1.52 mm 0 W/m2
19:29 15.8 °C 14.3 °C 1015.1 hPa SE 9.7 km/h 17.7 km/h 91 % 1.52 mm 0 W/m2
19:34 15.8 °C 14.5 °C 1015.1 hPa SE 9.7 km/h 17.7 km/h 92 % 1.78 mm 0 W/m2
19:35 15.8 °C 14.5 °C 1015.1 hPa SSE 9.7 km/h 17.7 km/h 92 % 1.78 mm 0 W/m2
19:40 15.7 °C 14.4 °C 1015.1 hPa SE 8 km/h 14.5 km/h 92 % 1.78 mm 0 W/m2
19:45 15.7 °C 14.4 °C 1015.1 hPa SE 9.7 km/h 16.1 km/h 92 % 1.78 mm 0 W/m2
19:50 15.6 °C 14.4 °C 1015.1 hPa SE 9.7 km/h 16.1 km/h 93 % 1.78 mm 0 W/m2
19:55 15.6 °C 14.4 °C 1015.1 hPa SE 8 km/h 12.9 km/h 93 % 2.03 mm 0 W/m2
20:00 15.6 °C 14.4 °C 1015.1 hPa SE 6.4 km/h 11.3 km/h 93 % 1.78 mm 0 W/m2
20:05 15.6 °C 14.4 °C 1015.1 hPa SE 8 km/h 14.5 km/h 93 % 1.52 mm 0 W/m2
20:10 15.5 °C 14.4 °C 1014.8 hPa SE 9.7 km/h 20.9 km/h 93 % 1.27 mm 0 W/m2
20:15 15.4 °C 14.3 °C 1015.1 hPa SSE 9.7 km/h 20.9 km/h 93 % 1.52 mm 0 W/m2
20:20 15.4 °C 14.3 °C 1014.8 hPa SSE 9.7 km/h 17.7 km/h 93 % 1.52 mm 0 W/m2
20:25 15.3 °C 14.3 °C 1015.1 hPa SSE 9.7 km/h 19.3 km/h 94 % 1.27 mm 0 W/m2
20:30 15.3 °C 14.3 °C 1015.1 hPa SSE 9.7 km/h 19.3 km/h 94 % 1.27 mm 0 W/m2
20:35 15.3 °C 14.3 °C 1015.1 hPa SSE 9.7 km/h 16.1 km/h 94 % 1.27 mm 0 W/m2
20:40 15.2 °C 14.2 °C 1014.8 hPa SSE 9.7 km/h 17.7 km/h 94 % 1.52 mm 0 W/m2
20:45 14.9 °C 13.8 °C 1015.1 hPa SSE 11.3 km/h 22.5 km/h 93 % 1.52 mm 0 W/m2
20:50 14.8 °C 13.5 °C 1014.8 hPa SSE 11.3 km/h 22.5 km/h 92 % 1.52 mm 0 W/m2
20:55 14.7 °C 13.4 °C 1015.1 hPa SSE 8 km/h 17.7 km/h 92 % 1.52 mm 0 W/m2
21:00 14.6 °C 13.3 °C 1015.1 hPa SSE 8 km/h 17.7 km/h 92 % 1.52 mm 0 W/m2
21:05 14.5 °C 13.2 °C 1015.1 hPa SSE 9.7 km/h 17.7 km/h 92 % 1.52 mm 0 W/m2
21:10 14.5 °C 13.4 °C 1015.1 hPa South 9.7 km/h 22.5 km/h 93 % 1.78 mm 0 W/m2
21:15 14.4 °C 13.1 °C 1015.1 hPa SSE 14.5 km/h 25.7 km/h 92 % 1.52 mm 0 W/m2
21:20 14.3 °C 13 °C 1015.1 hPa SSE 16.1 km/h 25.7 km/h 92 % 1.78 mm 0 W/m2
21:25 14.4 °C 13.1 °C 1015.1 hPa SSE 12.9 km/h 25.7 km/h 92 % 1.78 mm 0 W/m2
21:30 14.3 °C 13 °C 1015.1 hPa SSE 11.3 km/h 25.7 km/h 92 % 1.52 mm 0 W/m2
21:35 14.1 °C 12.7 °C 1015.1 hPa SSE 12.9 km/h 25.7 km/h 91 % 1.52 mm 0 W/m2
21:40 14 °C 12.6 °C 1015.1 hPa SE 12.9 km/h 20.9 km/h 91 % 1.78 mm 0 W/m2
21:45 13.9 °C 12.6 °C 1015.1 hPa SE 14.5 km/h 25.7 km/h 92 % 1.52 mm 0 W/m2
21:50 13.8 °C 12.5 °C 1014.8 hPa SE 14.5 km/h 25.7 km/h 92 % 1.52 mm 0 W/m2
21:55 13.7 °C 12.4 °C 1014.8 hPa SE 14.5 km/h 24.1 km/h 92 % 1.52 mm 0 W/m2
22:00 13.7 °C 12.6 °C 1015.1 hPa SE 12.9 km/h 24.1 km/h 93 % 1.78 mm 0 W/m2
22:05 13.6 °C 12.5 °C 1015.1 hPa SE 14.5 km/h 25.7 km/h 93 % 1.78 mm 0 W/m2
22:10 13.6 °C 12.5 °C 1014.8 hPa SE 16.1 km/h 25.7 km/h 93 % 1.52 mm 0 W/m2
22:16 13.6 °C 12.5 °C 1014.8 hPa SE 14.5 km/h 25.7 km/h 93 % 1.78 mm 0 W/m2
22:21 13.5 °C 12.6 °C 1014.8 hPa SE 16.1 km/h 33.8 km/h 94 % 1.78 mm 0 W/m2
22:26 13.5 °C 12.6 °C 1014.8 hPa SE 14.5 km/h 33.8 km/h 94 % 1.52 mm 0 W/m2
22:31 13.5 °C 12.6 °C 1014.8 hPa SSE 12.9 km/h 20.9 km/h 94 % 1.78 mm 0 W/m2
22:36 13.5 °C 12.6 °C 1014.8 hPa SE 14.5 km/h 24.1 km/h 94 % 1.78 mm 0 W/m2
22:41 13.5 °C 12.6 °C 1014.8 hPa SE 14.5 km/h 24.1 km/h 94 % 1.52 mm 0 W/m2
22:46 13.6 °C 12.7 °C 1014.8 hPa SE 12.9 km/h 22.5 km/h 94 % 1.52 mm 0 W/m2
22:51 13.6 °C 12.7 °C 1014.8 hPa SE 11.3 km/h 17.7 km/h 94 % 1.52 mm 0 W/m2
22:56 13.6 °C 12.8 °C 1014.8 hPa SE 11.3 km/h 19.3 km/h 95 % 1.52 mm 0 W/m2
23:01 13.6 °C 12.8 °C 1014.8 hPa SE 11.3 km/h 22.5 km/h 95 % 1.27 mm 0 W/m2
23:06 13.6 °C 12.8 °C 1014.8 hPa SE 11.3 km/h 22.5 km/h 95 % 1.27 mm 0 W/m2
23:11 13.6 °C 12.8 °C 1014.8 hPa SE 11.3 km/h 17.7 km/h 95 % 1.02 mm 0 W/m2
23:16 13.6 °C 12.8 °C 1014.8 hPa SE 11.3 km/h 17.7 km/h 95 % 0.76 mm 0 W/m2
23:21 13.6 °C 12.8 °C 1014.8 hPa SE 11.3 km/h 17.7 km/h 95 % 1.02 mm 0 W/m2
23:26 13.6 °C 12.8 °C 1014.8 hPa SE 12.9 km/h 22.5 km/h 95 % 1.27 mm 0 W/m2
23:31 13.6 °C 12.8 °C 1014.8 hPa SSE 12.9 km/h 22.5 km/h 95 % 1.02 mm 0 W/m2
23:36 13.6 °C 12.8 °C 1014.8 hPa SSE 12.9 km/h 20.9 km/h 95 % 1.02 mm 0 W/m2
23:41 13.6 °C 12.8 °C 1014.8 hPa SSE 11.3 km/h 17.7 km/h 95 % 1.27 mm 0 W/m2
23:46 13.6 °C 12.8 °C 1014.8 hPa SE 11.3 km/h 19.3 km/h 95 % 1.52 mm 0 W/m2
23:51 13.6 °C 12.8 °C 1014.8 hPa SE 11.3 km/h 19.3 km/h 95 % 1.52 mm 0 W/m2
23:56 13.6 °C 12.8 °C 1014.8 hPa SE 11.3 km/h 19.3 km/h 95 % 1.52 mm 0 W/m2
Delerius-Weather
Compliments of Weather Underground - 2.25 mb

Data updates at regular intervals.